Time,TemperatureF,DewpointF,PressureIn,WindDirection,WindDirectionDegrees,WindSpeedMPH,WindSpeedGustMPH,Humidity,HourlyPrecipIn,Conditions,Clouds,dailyrainin,SolarRadiationWatts/m^2,SoftwareType,DateUTC
2013-06-04 00:14:00,47.9,46.0,30.36,North,5,11.0,14.0,92,0.00,,,0.05,0,weatherlink.com 1.10,2013-06-04 06:14:00,
2013-06-04 00:30:00,48.6,46.0,30.36,North,349,15.0,16.0,91,0.00,,,0.05,0,weatherlink.com 1.10,2013-06-04 06:30:00,
2013-06-04 00:45:00,48.6,46.0,30.37,North,5,13.0,16.0,90,0.00,,,0.05,0,weatherlink.com 1.10,2013-06-04 06:45:00,
2013-06-04 01:00:00,48.4,46.0,30.36,NNW,344,11.0,15.0,90,0.00,,,0.05,0,weatherlink.com 1.10,2013-06-04 07:00:00,
2013-06-04 01:15:00,48.1,45.0,30.37,North,355,13.0,15.0,89,0.00,,,0.05,0,weatherlink.com 1.10,2013-06-04 07:15:00,
2013-06-04 01:30:00,48.0,45.0,30.37,NNW,341,11.0,16.0,88,0.00,,,0.05,0,weatherlink.com 1.10,2013-06-04 07:30:00,
2013-06-04 01:45:00,47.8,45.0,30.37,North,350,8.0,9.0,89,0.00,,,0.05,0,weatherlink.com 1.10,2013-06-04 07:45:00,
2013-06-04 02:00:00,47.8,44.0,30.37,North,355,6.0,10.0,87,0.00,,,0.05,0,weatherlink.com 1.10,2013-06-04 08:00:00,
2013-06-04 02:15:00,48.0,44.0,30.37,NNW,340,7.0,13.0,85,0.00,,,0.00,0,weatherlink.com 1.10,2013-06-04 08:15:00,
2013-06-04 02:30:00,47.9,44.0,30.37,North,355,5.0,10.0,85,0.00,,,0.00,0,weatherlink.com 1.10,2013-06-04 08:30:00,
2013-06-04 02:45:00,47.9,43.0,30.38,North,350,8.0,12.0,84,0.00,,,0.00,0,weatherlink.com 1.10,2013-06-04 08:45:00,
2013-06-04 03:00:00,47.8,43.0,30.38,NNW,338,12.0,12.0,83,0.00,,,0.00,0,weatherlink.com 1.10,2013-06-04 09:00:00,
2013-06-04 03:15:00,47.5,43.0,30.39,NNW,327,8.0,12.0,84,0.00,,,0.00,0,weatherlink.com 1.10,2013-06-04 09:15:00,
2013-06-04 03:30:00,47.4,43.0,30.39,NW,320,9.0,11.0,84,0.00,,,0.00,0,weatherlink.com 1.10,2013-06-04 09:30:00,
2013-06-04 03:45:00,47.4,43.0,30.39,North,355,12.0,14.0,84,0.00,,,0.00,0,weatherlink.com 1.10,2013-06-04 09:45:00,
2013-06-04 04:00:00,47.4,43.0,30.39,NNW,334,10.0,12.0,83,0.00,,,0.00,0,weatherlink.com 1.10,2013-06-04 10:00:00,
2013-06-04 04:15:00,47.2,43.0,30.39,NW,324,9.0,15.0,84,0.00,,,0.00,0,weatherlink.com 1.10,2013-06-04 10:15:00,
2013-06-04 04:30:00,47.1,42.0,30.39,NNW,340,5.0,9.0,83,0.00,,,0.00,0,weatherlink.com 1.10,2013-06-04 10:30:00,
2013-06-04 04:45:00,47.3,42.0,30.39,NNW,340,0.0,2.0,83,0.00,,,0.00,0,weatherlink.com 1.10,2013-06-04 10:45:00,
2013-06-04 05:00:00,47.4,43.0,30.40,SSE,166,0.0,5.0,83,0.00,,,0.00,0,weatherlink.com 1.10,2013-06-04 11:00:00,
2013-06-04 05:15:00,47.5,42.0,30.40,South,186,2.0,5.0,81,0.00,,,0.00,0,weatherlink.com 1.10,2013-06-04 11:15:00,
2013-06-04 05:30:00,47.4,42.0,30.40,SSE,160,3.0,4.0,81,0.00,,,0.00,0,weatherlink.com 1.10,2013-06-04 11:30:00,
2013-06-04 05:45:00,47.4,42.0,30.41,South,177,3.0,5.0,81,0.00,,,0.00,0,weatherlink.com 1.10,2013-06-04 11:45:00,
2013-06-04 06:00:00,47.2,43.0,30.41,South,172,3.0,6.0,84,0.00,,,0.00,0,weatherlink.com 1.10,2013-06-04 12:00:00,
2013-06-04 06:15:00,47.1,42.0,30.41,South,169,4.0,6.0,83,0.00,,,0.00,9,weatherlink.com 1.10,2013-06-04 12:15:00,
2013-06-04 06:30:00,47.0,42.0,30.41,SSE,161,4.0,7.0,84,0.00,,,0.00,21,weatherlink.com 1.10,2013-06-04 12:30:00,
2013-06-04 06:45:00,47.1,42.0,30.42,SSW,209,5.0,8.0,83,0.00,,,0.00,33,weatherlink.com 1.10,2013-06-04 12:45:00,
2013-06-04 07:00:00,47.1,42.0,30.42,South,188,4.0,7.0,83,0.00,,,0.00,58,weatherlink.com 1.10,2013-06-04 13:00:00,
2013-06-04 07:15:00,47.4,43.0,30.43,South,182,2.0,3.0,83,0.00,,,0.00,63,weatherlink.com 1.10,2013-06-04 13:15:00,
2013-06-04 07:30:00,47.6,42.0,30.43,South,182,1.0,2.0,81,0.00,,,0.00,69,weatherlink.com 1.10,2013-06-04 13:30:00,
2013-06-04 07:45:00,48.1,43.0,30.43,SSW,205,4.0,7.0,82,0.00,,,0.00,83,weatherlink.com 1.10,2013-06-04 13:45:00,
2013-06-04 08:00:00,47.4,43.0,30.44,SW,228,6.0,6.0,83,0.00,,,0.00,107,weatherlink.com 1.10,2013-06-04 14:00:00,
2013-06-04 08:15:00,47.8,42.0,30.45,SW,231,1.0,5.0,81,0.00,,,0.00,135,weatherlink.com 1.10,2013-06-04 14:15:00,
2013-06-04 08:30:00,48.7,42.0,30.45,SW,231,0.0,2.0,79,0.00,,,0.00,213,weatherlink.com 1.10,2013-06-04 14:30:00,
2013-06-04 08:46:00,50.1,41.0,30.45,WSW,239,0.0,3.0,72,0.00,,,0.00,404,weatherlink.com 1.10,2013-06-04 14:46:00,
2013-06-04 09:01:00,50.3,40.0,30.46,WSW,238,2.0,4.0,69,0.00,,,0.00,276,weatherlink.com 1.10,2013-06-04 15:01:00,
2013-06-04 09:16:00,51.0,40.0,30.46,SW,231,4.0,4.0,67,0.00,,,0.00,146,weatherlink.com 1.10,2013-06-04 15:16:00,
2013-06-04 09:31:00,51.1,40.0,30.46,SSW,209,1.0,3.0,65,0.00,,,0.00,613,weatherlink.com 1.10,2013-06-04 15:31:00,
2013-06-04 09:46:00,51.9,40.0,30.46,SW,236,2.0,8.0,64,0.00,,,0.00,673,weatherlink.com 1.10,2013-06-04 15:46:00,
2013-06-04 10:01:00,52.4,38.0,30.46,WSW,251,4.0,7.0,59,0.00,,,0.00,622,weatherlink.com 1.10,2013-06-04 16:01:00,
2013-06-04 10:16:00,53.8,38.0,30.46,NW,308,3.0,8.0,55,0.00,,,0.00,765,weatherlink.com 1.10,2013-06-04 16:16:00,
2013-06-04 10:46:00,54.6,38.0,30.45,West,279,2.0,8.0,53,0.00,,,0.00,891,weatherlink.com 1.10,2013-06-04 16:46:00,
2013-06-04 11:01:00,55.1,37.0,30.45,North,355,0.0,9.0,51,0.00,,,0.00,374,weatherlink.com 1.10,2013-06-04 17:01:00,
2013-06-04 11:16:00,55.4,37.0,30.45,North,11,8.0,10.0,51,0.00,,,0.00,902,weatherlink.com 1.10,2013-06-04 17:16:00,
2013-06-04 11:31:00,55.9,37.0,30.45,NNW,336,9.0,11.0,49,0.00,,,0.00,1060,weatherlink.com 1.10,2013-06-04 17:31:00,
2013-06-04 11:46:00,56.3,37.0,30.45,WNW,284,6.0,12.0,48,0.00,,,0.00,942,weatherlink.com 1.10,2013-06-04 17:46:00,
2013-06-04 12:01:00,56.6,36.0,30.45,NNE,13,6.0,12.0,47,0.00,,,0.00,1004,weatherlink.com 1.10,2013-06-04 18:01:00,
2013-06-04 12:16:00,57.9,38.0,30.45,NE,34,5.0,9.0,47,0.00,,,0.00,1093,weatherlink.com 1.10,2013-06-04 18:16:00,
2013-06-04 12:31:00,57.4,37.0,30.45,WNW,288,5.0,13.0,46,0.00,,,0.00,490,weatherlink.com 1.10,2013-06-04 18:31:00,
2013-06-04 12:46:00,58.0,37.0,30.45,WNW,298,1.0,10.0,46,0.00,,,0.00,1004,weatherlink.com 1.10,2013-06-04 18:46:00,
2013-06-04 13:01:00,59.0,38.0,30.45,WNW,294,6.0,11.0,45,0.00,,,0.00,1099,weatherlink.com 1.10,2013-06-04 19:01:00,
2013-06-04 13:16:00,58.8,38.0,30.44,NW,305,5.0,6.0,46,0.00,,,0.00,278,weatherlink.com 1.10,2013-06-04 19:16:00,
2013-06-04 13:31:00,59.2,38.0,30.44,North,350,9.0,16.0,45,0.00,,,0.00,886,weatherlink.com 1.10,2013-06-04 19:31:00,
2013-06-04 13:46:00,59.8,38.0,30.44,NNE,22,2.0,15.0,44,0.00,,,0.00,867,weatherlink.com 1.10,2013-06-04 19:46:00,
2013-06-04 14:01:00,60.4,38.0,30.43,North,11,1.0,7.0,44,0.00,,,0.00,1020,weatherlink.com 1.10,2013-06-04 20:01:00,
2013-06-04 14:16:00,61.4,39.0,30.43,North,10,4.0,13.0,43,0.00,,,0.00,1035,weatherlink.com 1.10,2013-06-04 20:16:00,
2013-06-04 14:31:00,61.3,39.0,30.42,NNE,23,7.0,12.0,44,0.00,,,0.00,970,weatherlink.com 1.10,2013-06-04 20:31:00,
2013-06-04 14:46:00,60.9,38.0,30.42,WNW,299,3.0,15.0,43,0.00,,,0.00,963,weatherlink.com 1.10,2013-06-04 20:46:00,
2013-06-04 15:01:00,61.7,38.0,30.42,NNW,348,11.0,16.0,42,0.00,,,0.00,904,weatherlink.com 1.10,2013-06-04 21:01:00,
2013-06-04 15:16:00,61.7,39.0,30.42,NNW,331,9.0,17.0,43,0.00,,,0.00,867,weatherlink.com 1.10,2013-06-04 21:16:00,
2013-06-04 15:47:00,62.2,39.0,30.41,NNW,342,6.0,14.0,42,0.00,,,0.00,824,weatherlink.com 1.10,2013-06-04 21:47:00,
2013-06-04 16:01:00,62.1,38.0,30.41,North,355,9.0,12.0,41,0.00,,,0.00,803,weatherlink.com 1.10,2013-06-04 22:01:00,
2013-06-04 16:17:00,62.5,38.0,30.40,NW,311,5.0,17.0,40,0.00,,,0.00,779,weatherlink.com 1.10,2013-06-04 22:17:00,
2013-06-04 16:32:00,63.9,36.0,30.39,NNW,333,4.0,15.0,36,0.00,,,0.00,751,weatherlink.com 1.10,2013-06-04 22:32:00,
2013-06-04 16:47:00,63.5,38.0,30.39,NNW,333,8.0,14.0,39,0.00,,,0.00,724,weatherlink.com 1.10,2013-06-04 22:47:00,
2013-06-04 17:02:00,64.1,38.0,30.39,NNW,331,10.0,15.0,38,0.00,,,0.00,687,weatherlink.com 1.10,2013-06-04 23:02:00,
2013-06-04 17:17:00,64.3,37.0,30.39,NNW,347,9.0,16.0,36,0.00,,,0.00,647,weatherlink.com 1.10,2013-06-04 23:17:00,
2013-06-04 17:32:00,64.6,37.0,30.38,NNW,342,5.0,17.0,36,0.00,,,0.00,608,weatherlink.com 1.10,2013-06-04 23:32:00,
2013-06-04 17:47:00,64.9,36.0,30.38,NNW,348,7.0,15.0,35,0.00,,,0.00,564,weatherlink.com 1.10,2013-06-04 23:47:00,
2013-06-04 18:02:00,65.0,37.0,30.37,NW,319,8.0,18.0,36,0.00,,,0.00,522,weatherlink.com 1.10,2013-06-05 00:02:00,
2013-06-04 18:17:00,65.2,37.0,30.37,NW,312,12.0,14.0,35,0.00,,,0.00,480,weatherlink.com 1.10,2013-06-05 00:17:00,
2013-06-04 18:32:00,65.1,37.0,30.36,NW,325,11.0,17.0,35,0.00,,,0.00,434,weatherlink.com 1.10,2013-06-05 00:32:00,
2013-06-04 18:47:00,64.9,37.0,30.36,NW,307,11.0,17.0,36,0.00,,,0.00,388,weatherlink.com 1.10,2013-06-05 00:47:00,
2013-06-04 19:02:00,65.5,36.0,30.36,North,5,12.0,15.0,34,0.00,,,0.00,350,weatherlink.com 1.10,2013-06-05 01:02:00,
2013-06-04 19:17:00,65.1,36.0,30.36,NNW,346,12.0,16.0,34,0.00,,,0.00,311,weatherlink.com 1.10,2013-06-05 01:17:00,
2013-06-04 19:32:00,64.9,37.0,30.36,NNW,338,11.0,14.0,36,0.00,,,0.00,267,weatherlink.com 1.10,2013-06-05 01:32:00,
2013-06-04 19:47:00,64.6,36.0,30.36,NNW,327,10.0,13.0,35,0.00,,,0.00,218,weatherlink.com 1.10,2013-06-05 01:47:00,
2013-06-04 20:02:00,64.4,35.0,30.36,NNW,329,10.0,13.0,33,0.00,,,0.00,167,weatherlink.com 1.10,2013-06-05 02:02:00,
2013-06-04 20:17:00,64.1,33.0,30.36,NNW,336,9.0,12.0,32,0.00,,,0.00,114,weatherlink.com 1.10,2013-06-05 02:17:00,
2013-06-04 20:32:00,63.7,35.0,30.37,NNW,338,8.0,12.0,35,0.00,,,0.00,74,weatherlink.com 1.10,2013-06-05 02:32:00,
2013-06-04 20:47:00,62.9,37.0,30.36,NNW,347,6.0,9.0,38,0.00,,,0.00,39,weatherlink.com 1.10,2013-06-05 02:47:00,
2013-06-04 21:02:00,62.4,38.0,30.37,North,360,4.0,6.0,40,0.00,,,0.00,16,weatherlink.com 1.10,2013-06-05 03:02:00,
2013-06-04 21:17:00,60.6,38.0,30.36,NNE,21,6.0,8.0,43,0.00,,,0.00,7,weatherlink.com 1.10,2013-06-05 03:17:00,
2013-06-04 21:32:00,59.4,37.0,30.36,NNE,19,6.0,9.0,43,0.00,,,0.00,0,weatherlink.com 1.10,2013-06-05 03:32:00,
2013-06-04 21:47:00,58.7,37.0,30.37,NNE,28,6.0,10.0,45,0.00,,,0.00,0,weatherlink.com 1.10,2013-06-05 03:47:00,
2013-06-04 22:02:00,57.9,38.0,30.37,NE,44,7.0,9.0,47,0.00,,,0.00,0,weatherlink.com 1.10,2013-06-05 04:02:00,
2013-06-04 22:17:00,58.0,38.0,30.38,NE,34,8.0,10.0,47,0.00,,,0.00,0,weatherlink.com 1.10,2013-06-05 04:17:00,
2013-06-04 22:32:00,58.2,38.0,30.38,NNE,24,9.0,12.0,47,0.00,,,0.00,0,weatherlink.com 1.10,2013-06-05 04:32:00,
2013-06-04 22:47:00,57.2,38.0,30.38,NNE,23,8.0,10.0,49,0.00,,,0.00,0,weatherlink.com 1.10,2013-06-05 04:47:00,
2013-06-04 23:02:00,56.2,38.0,30.38,NE,35,5.0,10.0,50,0.00,,,0.00,0,weatherlink.com 1.10,2013-06-05 05:02:00,
2013-06-04 23:17:00,55.3,37.0,30.38,NNE,20,4.0,8.0,51,0.00,,,0.00,0,weatherlink.com 1.10,2013-06-05 05:17:00,
2013-06-04 23:32:00,54.5,38.0,30.38,North,5,5.0,9.0,54,0.00,,,0.00,0,weatherlink.com 1.10,2013-06-05 05:32:00,
2013-06-04 23:47:00,54.0,38.0,30.39,NNE,18,7.0,9.0,55,0.00,,,0.00,0,weatherlink.com 1.10,2013-06-05 05:47:00,